Glenwood, MN

5:06 PM CDT on May 24, 2018 (GMT -0500)
Glenwood Municipal

Weather History for KGHW - November, 2014

Change the Weather History Date:

Friday, November 7, 2014

  Actual Average Record
Temperature  
Mean Temperature 38 °F -  
Max Temperature 46 °F 43 °F 68 °F (1999)
Min Temperature 30 °F 25 °F -16 °F (2008)
Degree Days  
Heating Degree Days 27    
Moisture  
Dew Point 34 °F    
Average Humidity 83    
Maximum Humidity 100    
Minimum Humidity 70    
Precipitation  
Precipitation 0.02 in - - ()
Sea Level Pressure  
Sea Level Pressure 29.82 in    
Wind  
Wind Speed 13 mph (South)    
Max Wind Speed 33 mph    
Max Gust Speed 44 mph    
Visibility 10 miles    
Events Rain    
Averages and records for this station are not official NWS values.
T = Trace of Precipitation, MM = Missing Value Source: NWS Daily Summary

Daily Weather History Graph

Daily Weather History Graph

Search for Another Location

Airport or City:

Astronomy

Nov. 07, 2014 Rise Set
Actual Time 7:09 AM CST 4:59 PM CST
Civil Twilight 6:38 AM CST 5:31 PM CST
Nautical Twilight 6:02 AM CST 6:06 PM CST
Astronomical Twilight 5:27 AM CST 6:41 PM CST
Moon 5:52 PM CST (11/7) 7:46 AM CST (11/7)
Length of Visible Light 10h 53m
Length of Day
9h 50m
Full, 99% of the Moon is Illuminated
Nov 7
Full
Nov 14
Last Quarter
Nov 22
New
Nov 29
First Quarter
Dec 6
Full

Hourly Weather History & Observations

Time (CST) Temp. Windchill Dew Point Humidity Pressure Visibility Wind Dir Wind Speed Gust Speed Precip Events Conditions
12:13 AM 30.2 °F 23.4 °F 30.2 °F 100% 30.14 in 10.0 mi SSE 6.9 mph - N/A   Clear
12:33 AM 32.0 °F 25.6 °F 30.2 °F 93% 30.13 in 10.0 mi SSE 6.9 mph - N/A   Clear
12:53 AM 32.0 °F 25.6 °F 30.2 °F 93% 30.12 in 7.0 mi SSE 6.9 mph - N/A   Clear
1:13 AM 33.8 °F 27.7 °F 32.0 °F 93% 30.11 in 10.0 mi SSE 6.9 mph - N/A   Clear
1:33 AM 33.8 °F 26.4 °F 30.2 °F 87% 30.10 in 10.0 mi SSE 9.2 mph - N/A   Scattered Clouds
1:52 AM 33.8 °F 25.8 °F 30.2 °F 87% 30.07 in 10.0 mi SSE 10.4 mph - N/A   Clear
2:13 AM 33.8 °F 26.4 °F 30.2 °F 87% 30.06 in 10.0 mi SSE 9.2 mph - N/A   Clear
2:33 AM 33.8 °F 25.8 °F 30.2 °F 87% 30.06 in 10.0 mi SSE 10.4 mph - N/A   Clear
2:52 AM 33.8 °F 25.3 °F 30.2 °F 87% 30.04 in 10.0 mi SSE 11.5 mph - N/A   Clear
3:13 AM 33.8 °F 24.3 °F 30.2 °F 87% 30.01 in 10.0 mi SSE 13.8 mph - N/A   Clear
3:33 AM 33.8 °F 24.8 °F 30.2 °F 87% 29.99 in 10.0 mi SSE 12.7 mph 21.9 mph N/A   Clear
3:52 AM 33.8 °F 24.8 °F 30.2 °F 87% 29.98 in 10.0 mi SE 12.7 mph - N/A   Clear
4:13 AM 33.8 °F 24.3 °F 30.2 °F 87% 29.96 in 10.0 mi SSE 13.8 mph - N/A   Clear
4:33 AM 35.6 °F 26.6 °F 30.2 °F 81% 29.94 in 10.0 mi SSE 13.8 mph - N/A   Clear
4:53 AM 35.6 °F 24.8 °F 28.4 °F 75% 29.91 in 10.0 mi SSE 19.6 mph 25.3 mph N/A   Clear
5:13 AM 35.6 °F 25.5 °F 28.4 °F 75% 29.89 in 10.0 mi SSE 17.3 mph 23.0 mph N/A   Scattered Clouds
5:33 AM 35.6 °F 26.2 °F 30.2 °F 81% 29.90 in 10.0 mi SSE 15.0 mph - N/A   Mostly Cloudy
5:53 AM 35.6 °F 25.5 °F 30.2 °F 81% 29.88 in 10.0 mi SSE 17.3 mph 21.9 mph N/A   Mostly Cloudy
6:13 AM 35.6 °F 26.6 °F 30.2 °F 81% 29.87 in 10.0 mi SE 13.8 mph - N/A   Overcast
6:33 AM 35.6 °F 25.9 °F 30.2 °F 81% 29.86 in 10.0 mi SSE 16.1 mph - N/A   Mostly Cloudy
6:53 AM 35.6 °F 27.1 °F 30.2 °F 81% 29.86 in 10.0 mi SE 12.7 mph - N/A   Mostly Cloudy
7:13 AM 35.6 °F 27.1 °F 30.2 °F 81% 29.83 in 7.0 mi SE 12.7 mph 17.3 mph N/A Rain Light Rain
7:33 AM 35.6 °F 25.2 °F 30.2 °F 81% 29.81 in 7.0 mi SE 18.4 mph 25.3 mph N/A   Mostly Cloudy
7:53 AM 35.6 °F 27.5 °F 32.0 °F 87% 29.81 in 10.0 mi SE 11.5 mph - 0.01 in   Mostly Cloudy
8:13 AM 35.6 °F 29.9 °F 32.0 °F 87% 29.81 in 10.0 mi ESE 6.9 mph - N/A   Overcast
8:33 AM 35.6 °F 28.0 °F 32.0 °F 87% 29.81 in 10.0 mi SE 10.4 mph - N/A   Overcast
8:53 AM 35.6 °F 28.0 °F 32.0 °F 87% 29.79 in 10.0 mi SE 10.4 mph - N/A   Scattered Clouds
9:13 AM 37.4 °F 30.8 °F 33.8 °F 87% 29.79 in 10.0 mi SSE 9.2 mph - N/A   Mostly Cloudy
9:33 AM 37.4 °F 28.9 °F 32.0 °F 81% 29.79 in 10.0 mi SSE 13.8 mph - N/A   Scattered Clouds
9:53 AM 37.4 °F 28.2 °F 32.0 °F 81% 29.75 in 10.0 mi SE 16.1 mph - N/A Rain Light Rain
10:13 AM 37.4 °F 27.8 °F 33.8 °F 87% 29.73 in 10.0 mi SSE 17.3 mph 24.2 mph N/A   Scattered Clouds
10:32 AM 37.4 °F 28.2 °F 32.0 °F 81% 29.72 in 10.0 mi SSE 16.1 mph 21.9 mph N/A   Scattered Clouds
10:53 AM 39.2 °F 31.2 °F 33.8 °F 81% 29.75 in 10.0 mi South 13.8 mph - N/A   Clear
11:13 AM 39.2 °F 30.5 °F 33.8 °F 81% 29.73 in - South 16.1 mph - N/A   Unknown
11:33 AM 41.0 °F 33.5 °F 33.8 °F 76% 29.71 in 10.0 mi SSE 13.8 mph 18.4 mph N/A   Clear
11:53 AM 39.2 °F 30.8 °F 33.8 °F 81% 29.69 in 10.0 mi SSE 15.0 mph 18.4 mph N/A   Clear
12:13 PM 41.0 °F 33.9 °F 33.8 °F 76% 29.70 in 10.0 mi South 12.7 mph - N/A   Scattered Clouds
12:33 PM 42.8 °F 34.8 °F 33.8 °F 70% 29.67 in 10.0 mi SSE 17.3 mph - N/A   Scattered Clouds
12:53 PM 42.8 °F 36.2 °F 35.6 °F 76% 29.68 in 10.0 mi South 12.7 mph - N/A   Clear
1:13 PM 44.6 °F 38.1 °F 35.6 °F 71% 29.65 in 10.0 mi South 13.8 mph - N/A   Clear
1:33 PM 44.6 °F 38.4 °F 35.6 °F 71% 29.65 in 10.0 mi South 12.7 mph - N/A   Light Drizzle
1:53 PM 44.6 °F 38.8 °F 37.4 °F 76% 29.65 in 10.0 mi South 11.5 mph - N/A   Light Drizzle
2:13 PM 44.6 °F 38.8 °F 37.4 °F 76% 29.63 in 10.0 mi South 11.5 mph - N/A Rain Light Rain
2:33 PM 42.8 °F 37.5 °F 39.2 °F 87% 29.63 in 10.0 mi South 9.2 mph - N/A Rain Light Rain
2:53 PM 44.6 °F 39.2 °F 39.2 °F 81% 29.63 in 10.0 mi SSW 10.4 mph - N/A   Scattered Clouds
3:13 PM 44.6 °F 38.8 °F 37.4 °F 76% 29.64 in 10.0 mi SSW 11.5 mph - N/A   Scattered Clouds
3:33 PM 44.6 °F 39.2 °F 37.4 °F 76% 29.64 in 10.0 mi SSW 10.4 mph - N/A   Clear
3:53 PM 46.4 °F 42.4 °F 37.4 °F 71% 29.65 in 10.0 mi SSW 8.1 mph - N/A   Mostly Cloudy
4:13 PM 44.6 °F 41.4 °F 37.4 °F 76% 29.65 in 10.0 mi SW 5.8 mph - N/A   Overcast
4:33 PM 46.4 °F 41.9 °F 37.4 °F 71% 29.66 in 10.0 mi SW 9.2 mph - N/A   Overcast
4:52 PM 46.4 °F 41.1 °F 39.2 °F 76% 29.67 in 10.0 mi West 11.5 mph 16.1 mph N/A   Overcast
5:13 PM 44.6 °F 38.4 °F 41.0 °F 87% 29.67 in 7.0 mi West 12.7 mph 17.3 mph N/A   Overcast
5:33 PM 44.6 °F 38.1 °F 42.8 °F 93% 29.68 in 7.0 mi West 13.8 mph 18.4 mph N/A Rain Light Rain
5:53 PM 46.4 °F 37.7 °F 44.6 °F 93% 29.69 in 4.0 mi WNW 26.5 mph 36.8 mph N/A Rain Light Rain
6:13 PM 44.6 °F 35.7 °F 42.8 °F 93% 29.71 in 3.0 mi NW 24.2 mph 35.7 mph N/A   Overcast
6:33 PM 42.8 °F 33.3 °F 41.0 °F 93% 29.73 in 7.0 mi NW 24.2 mph 35.7 mph N/A Rain Light Rain
6:53 PM 42.8 °F 32.7 °F 41.0 °F 93% 29.75 in 10.0 mi WNW 27.6 mph 33.4 mph 0.01 in Rain Light Rain
7:13 PM 42.8 °F 33.8 °F 39.2 °F 87% 29.76 in 10.0 mi NW 21.9 mph 35.7 mph N/A   Overcast
7:33 PM 42.8 °F 33.1 °F 39.2 °F 87% 29.77 in 10.0 mi NW 25.3 mph 38.0 mph N/A   Overcast
7:52 PM 41.0 °F 29.3 °F 37.4 °F 87% 29.79 in 10.0 mi NW 33.4 mph 43.7 mph N/A   Overcast
8:13 PM 39.2 °F 27.8 °F 35.6 °F 87% 29.81 in 10.0 mi NW 27.6 mph 34.5 mph N/A   Overcast
8:33 PM 39.2 °F 27.6 °F 35.6 °F 87% 29.82 in 10.0 mi NW 28.8 mph 39.1 mph N/A   Mostly Cloudy
8:53 PM 37.4 °F 25.6 °F 33.8 °F 87% 29.84 in 10.0 mi NW 26.5 mph 40.3 mph N/A   Overcast
9:13 PM 37.4 °F 25.4 °F 33.8 °F 87% 29.85 in 10.0 mi NW 27.6 mph 40.3 mph N/A   Overcast
9:33 PM 37.4 °F 24.6 °F 33.8 °F 87% 29.86 in 10.0 mi NW 32.2 mph 40.3 mph N/A   Overcast
9:53 PM 37.4 °F 25.9 °F 32.0 °F 81% 29.87 in 10.0 mi NW 25.3 mph 35.7 mph N/A   Mostly Cloudy
10:13 PM 37.4 °F 26.6 °F 30.2 °F 75% 29.88 in 10.0 mi NW 21.9 mph 34.5 mph N/A   Mostly Cloudy
10:33 PM 37.4 °F 26.1 °F 30.2 °F 75% 29.89 in 10.0 mi NW 24.2 mph 34.5 mph N/A   Overcast
10:53 PM 37.4 °F 26.4 °F 30.2 °F 75% 29.90 in 10.0 mi NW 23.0 mph 34.5 mph N/A   Overcast
11:13 PM 37.4 °F 25.6 °F 28.4 °F 70% 29.90 in 10.0 mi NW 26.5 mph 35.7 mph N/A   Overcast
11:33 PM 37.4 °F 25.9 °F 28.4 °F 70% 29.92 in 10.0 mi NW 25.3 mph 31.1 mph N/A   Overcast
11:53 PM 35.6 °F 23.4 °F 28.4 °F 75% 29.93 in 10.0 mi NW 25.3 mph 35.7 mph N/A   Overcast